Location: Catstown
(52.4386°N, 7.2633°W)
Time: 22:26:10
(UTC+00:00)

Cosmos 1743 - Pass Details

Date: 18 September 2020
Orbit: 510 x 526 km, 82.6° (Epoch: 30 October)

Event Time Altitude Azimuth Distance (km) Brightness Sun altitude
Rises 19:17:18 0° 202° (SSW) 2,636 6.4 -7.1°
Reaches altitude 10° 19:19:28 10° 208° (SSW) 1,751 5.6 -7.4°
Maximum altitude 19:23:13 50° 285° (WNW) 668 3.8 -8.0°
Drops below altitude 10° 19:26:58 10° 2° (N) 1,756 5.6 -8.5°
Sets 19:29:10 0° 7° (N) 2,646 6.4 -8.8°
